GPS BIIF-4 (PRN 27)

Last updated on Sun Jul 06 2025 00:03:12 GMT+0000 (Coordinated Universal Time)

1 39166U 13023A 25186.17414755 -.00000060 00000+0 00000+0 0 9995 2 39166 54.7824 283.0916 0132924 48.1551 313.0056 2.00561026 88928
UTC large
Height (km)
Speed (km/s)
/
Latitude / Longitude
Inclination (degrees)
Orbital Period (minutes)
Azimuth
Elevation
Range (km)
Doppler Factor

Next 0 passes for location: London (51.5072 / 0.1276)

Sorry there are no passes over London.